Regional Weather Roundup
Issued by NWS

Home | Current Version | Previous Version | Graphics & Text | Print | Product List | Glossary On
Versions: 1 2 3 4 5 6 7 8 9 10 11 12 13 14 15 16 17 18 19 20 21 22 23 24 25 26 27 28 29 30 31 32 33 34 35 36 37 38 39 40 41 42 43 44 45 46 47 48 49 50
000
ASUS43 KDMX 070207
RWRIA

WEATHER ROUNDUP FOR IOWA
NATIONAL WEATHER SERVICE DES MOINES IA
900 PM CDT WED MAY 06 2015

NOTE: "FAIR" INDICATES FEW OR NO CLOUDS BELOW 12,000 FEET WITH NO
SIGNIFICANT WEATHER AND/OR OBSTRUCTIONS TO VISIBILITY.

* - THESE STATIONS ARE NOT NWS STATIONS...THUS NOT UNDER NWS
QUALITY CONTROL.  THEY ALSO DO NOT REPORT WEATHER SUCH
AS PRECIPITATION OR FOG.

IAZ001>003-012>014-020>022-031>034-043>046-070300-
   NORTHWEST IOWA

CITY           SKY/WX    TMP DP  RH WIND       PRES   REMARKS
CARROLL *      PTCLDY    68  57  68 S22G29    29.81F
CHEROKEE *     PTCLDY    66  61  82 SE16G22   29.76F
DENISON *      CLOUDY    68  61  77 S17G25    29.76F
LE MARS *      MOCLDY    68  61  77 SE16G25   29.72F
ORANGE CITY *  CLEAR     64  57  77 SE14      29.73F
SHELDON *      PTCLDY    64 N/A N/A SE20      29.74F
SIOUX CITY     CLOUDY    68  60  75 S20G26    29.71F
SPENCER        MOCLDY    67  58  72 SE17      29.79S
STORM LAKE *   MOCLDY    66  59  77 SE18G25   29.80F
$$

IAZ055>058-069>071-079>083-090>094-070300-
   SOUTHWEST IOWA

CITY           SKY/WX    TMP DP  RH WIND       PRES   REMARKS
ATLANTIC *     MOCLDY    68  57  68 SE20G29   29.80F
AUDUBON *      MOCLDY    66  57  72 SE14G23   29.83F
CLARINDA *     CLEAR     68  59  73 SE16      29.81F
COUNCIL BLFS * MOCLDY    68  63  83 SE18G25   29.77R
CRESTON *      PTCLDY    66  61  82 SE16      29.85F
HARLAN  *      CLOUDY    68  63  83 SE15G23   29.82F
LAMONI         PTCLDY    69  58  67 SE12      29.88F
RED OAK *      CLEAR     68  59  73 SE16G28   29.79S
SHENANDOAH *   CLEAR     68  61  77 SE20G28   29.78S
$$

IAZ047>049-059>061-072>074-084-070300-
   CENTRAL IOWA

CITY           SKY/WX    TMP DP  RH WIND       PRES   REMARKS
AMES           PTCLDY    68  58  70 S13       29.88R
ANKENY *       CLEAR     70  59  68 SE16      29.88F
CHARITON *     PTCLDY    66  59  77 SE9       29.90F
DES MOINES     MOCLDY    70  58  65 S15       29.88S
GRINNELL*      MOCLDY    66  59  77 SE8       29.94R
KNOXVILLE *    CLOUDY    70  57  64 S9        29.90S
MARSHALLTOWN   PTCLDY    69  57  65 S10       29.91R
PELLA *        MOCLDY    68  61  77 SE7       29.93S
PERRY *          N/A     66  59  77 SE15      29.85F
$$

IAZ004>006-015-016-023>025-035-036-070300-
   NORTH CENTRAL IOWA

CITY           SKY/WX    TMP DP  RH WIND       PRES   REMARKS
ALGONA *       CLOUDY    68  57  68 SE16      29.85S
CLARION *      CLEAR     68  59  73 S16G22    29.87S
ESTHERVILLE    CLOUDY    66  58  75 SE21      29.81S
FORT DODGE *   PTCLDY    68  57  68 SE10G20   29.86S
MASON CITY     CLOUDY    64  58  80 SE9       29.90R
FOREST CITY *  PTCLDY    64  55  72 SE12      29.88S
IOWA FALLS *     N/A     68  57  68 SE13      29.91R
$$

IAZ007>011-017>019-026>030-037>042-050>054-066-070300-
   NORTHEAST IOWA

CITY           SKY/WX    TMP DP  RH WIND       PRES   REMARKS
CEDAR RAPIDS   PTCLDY    64  61  90 SE8       29.95S
CHARLES CITY * CLOUDY    66  64  94 SE14G20   29.93R
CLINTON *      PTCLDY    64  59  82 E5        30.01F
DECORAH *      PTCLDY    64  59  82 S10G20    29.94S
DUBUQUE        CLOUDY    66  58  75 S7        29.99F
MONTICELLO *   PTCLDY    66  63  88 SE8       29.98S
OELWEIN *      CLOUDY    64  61  88 SE14      29.96R
WATERLOO       PTCLDY    67  60  78 SE12      29.92S
$$

IAZ064-065-067-068-078-070300-
   EAST CENTRAL IOWA

CITY           SKY/WX    TMP DP  RH WIND       PRES   REMARKS
DAVENPORT      MOCLDY    68  60  75 S7        29.99S
IOWA CITY      PTCLDY    64  61  90 SE5       29.97S
MT. PLEASANT * MOCLDY    64  64 100 SE5       29.97R
MUSCATINE *      N/A     66  63  88 CALM      29.97S
QUAD CITIES    MOCLDY    65  60  84 SE3       29.98S
$$

IAZ062-063-075>077-085>089-095>099-070300-
   SOUTHEAST IOWA

CITY           SKY/WX    TMP DP  RH WIND       PRES   REMARKS
BURLINGTON     PTCLDY    68  63  84 E5        29.97S
FAIRFIELD *    PTCLDY    66  63  88 SE8       29.95S
FORT MADISON * PTCLDY    68  63  83 E6        29.98R
KEOKUK *       MOCLDY    68  63  83 E5        29.96S
OSKALOOSA *      N/A     66  61  82 SE9       29.93S
CENTERVILLE *  PTCLDY    66  61  82 SE9       29.94S
OTTUMWA        MOCLDY    67  59  75 SE9       29.93R
WASHINGTON *   PTCLDY    66 N/A N/A SE8       29.96S
$$

ABBREVIATIONS USED IN REMARKS
   TC - TEMPERATURES IN CELSIUS
  WCI - WIND CHILL INDEX
   HX - HEAT INDEX
  VSB - VISIBILITY
$$



USA.gov is the U.S. government's official web portal to all federal, state and local government web resources and services.